[[{"header":{"parameterUnit":"m.s-1","parameterCategory":1,"la1":30.2991,"la2":30.254,"lo1":-89.0895,"lo2":-89.0444,"dy":0.0017,"dx":0.0017,"nx":28,"ny":28,"refTime":"2025-09-11T03:00:00:Z","depth":0,"parameterNumber":2,"parameterNumberName":"U-component_of_WINDS"},"data":[0,0,0,0,0,0,0,0,0,0,0,0,0,0,0,0,0,0,0,0,0,0,0,0,0,0,0,0,0,0,0,0,0,0,0,0,0,0,0,0,0,0,0,0,0,0,0,0,0,0,0,0,0,0,0,0,0,0,-1.2276,-1.2275,0,-1.2203,-1.2203,-1.2202,-1.2167,-1.2167,-1.2167,-1.2167,-1.2093,-1.2091,-1.2089,0,0,0,0,0,0,0,0,0,0,0,0,0,-1.2386,-1.2384,-1.2276,-1.2275,-1.2274,-1.2203,-1.2202,-1.2201,-1.2167,-1.2167,-1.2167,-1.2167,-1.2094,-1.2091,-1.2089,0,0,0,0,0,0,0,0,0,0,0,0,0,-1.2328,-1.2383,-1.2276,-1.2248,-1.2245,-1.2204,-1.2202,-1.2201,-1.2167,-1.2167,-1.2167,-1.2167,-1.2094,-1.2091,-1.2089,-1.2069,0,0,-1.2079,-1.2078,0,0,0,0,0,0,0,0,-1.2332,-1.2324,-1.2253,-1.225,-1.2246,-1.2194,-1.2214,-1.2157,-1.2167,-1.2197,-1.2167,-1.2167,-1.2127,-1.2121,-1.2107,-1.2066,-1.2063,-1.2079,-1.2077,-1.2076,-1.2075,0,0,0,0,0,0,0,-1.2336,-1.2327,-1.2247,-1.2252,-1.2248,-1.224,-1.2232,-1.2203,-1.2162,-1.2194,-1.2191,-1.2183,-1.2125,-1.211,-1.2105,-1.2061,-1.2079,-1.2077,-1.2075,-1.2074,-1.2004,-1.2003,0,0,0,0,0,0,-1.2344,-1.2331,-1.2249,-1.2245,-1.229,-1.2238,-1.2229,-1.2211,-1.2162,-1.2155,-1.2183,-1.2182,-1.2115,-1.2109,-1.2103,-1.2078,-1.2076,-1.2073,-1.2071,-1.2004,-1.2004,-1.2003,0,0,0,0,0,0,-1.2346,-1.2337,-1.2252,-1.2287,-1.2276,-1.2236,-1.2216,-1.2209,-1.2195,-1.2154,-1.2147,-1.2176,-1.2115,-1.2107,-1.2078,-1.2075,-1.2072,-1.2069,-1.2004,-1.2004,-1.2003,-1.2029,0,0,0,0,0,0,-1.235,-1.2338,-1.233,-1.2287,-1.2274,-1.2229,-1.2216,-1.2208,-1.219,-1.2187,-1.2145,-1.2139,-1.2115,-1.2083,-1.2075,-1.2071,-1.2067,-1.2004,-1.2004,-1.2004,-1.2028,-1.203,-1.2031,0,0,0,0,0,-1.2354,-1.2339,-1.2329,-1.232,-1.2263,-1.2229,-1.2221,-1.2194,-1.219,-1.2181,-1.2156,-1.214,-1.2077,-1.208,-1.2072,-1.2066,-1.2004,-1.2004,-1.2004,-1.2028,-1.203,-1.2031,0,0,0,0,0,0,-1.2381,-1.2333,-1.2322,-1.2293,-1.2265,-1.2223,-1.2211,-1.2196,-1.2169,-1.2168,-1.2135,-1.2126,-1.2101,-1.2081,-1.2085,-1.2047,-1.2039,-1.2037,-1.2061,-1.2062,-1.2064,-1.2069,-1.2064,0,0,0,0,0,-1.2384,-1.2361,-1.2319,-1.2298,-1.2285,-1.2251,-1.2235,-1.2217,-1.2187,-1.2175,-1.2147,-1.2119,-1.2093,-1.2076,-1.205,-1.2026,-1.2017,-1.2018,-1.202,-1.2021,-1.202,-1.2008,-1.2008,-1.2003,-1.2003,-1.2003,0,0,-1.239,-1.236,-1.2347,-1.2303,-1.2279,-1.2256,-1.2241,-1.2216,-1.2199,-1.2171,-1.2143,-1.2122,-1.2088,-1.2063,-1.205,-1.2045,-1.202,-1.2021,-1.2022,-1.202,-1.2008,-1.2008,-1.2009,-1.2003,-1.2003,-1.2003,0,0,-1.2388,-1.2363,-1.2343,-1.2321,-1.2286,-1.2263,-1.2259,-1.2219,-1.2205,-1.2176,-1.2155,-1.2135,-1.209,-1.2068,-1.2051,-1.2044,-1.2029,-1.2037,-1.2044,-1.2033,-1.2033,-1.2034,-1.2033,-1.2033,-1.2036,-1.2036,-1.2036,0,-1.2399,-1.2363,-1.2335,-1.2312,-1.2295,-1.2269,-1.225,-1.2229,-1.2187,-1.2176,-1.2171,-1.2117,-1.2092,-1.2062,-1.2061,-1.2047,-1.2043,-1.2041,-1.2036,-1.2036,-1.2035,-1.2034,-1.2034,-1.2037,-1.2037,-1.2037,-1.2037,0,-1.2379,-1.2355,-1.2343,-1.2305,-1.2286,-1.2265,-1.2235,-1.2219,-1.2203,-1.2182,-1.2155,-1.2125,-1.2093,-1.2085,-1.2069,-1.2053,-1.2052,-1.2042,-1.2033,-1.2038,-1.2036,-1.2035,-1.2039,-1.2038,-1.2038,-1.2038,0,0,-1.2391,-1.2339,-1.2335,-1.2319,-1.228,-1.2261,-1.224,-1.221,-1.2198,-1.217,-1.2153,-1.2118,-1.2109,-1.209,-1.2071,-1.2061,-1.2061,-1.2053,-1.2052,-1.2056,-1.2044,-1.2052,-1.2052,-1.2051,-1.205,-1.205,-1.2048,0,-1.2384,-1.2345,-1.2321,-1.2292,-1.227,-1.2247,-1.2229,-1.2204,-1.2185,-1.2164,-1.2143,-1.2119,-1.2108,-1.2097,-1.2086,-1.2063,-1.2058,-1.2063,-1.2035,-1.2035,-1.2045,-1.2051,-1.2059,-1.2057,-1.2047,-1.2046,-1.2046,0,-1.237,-1.2345,-1.2315,-1.2281,-1.2271,-1.2255,-1.2227,-1.2207,-1.2179,-1.2166,-1.2146,-1.2128,-1.2107,-1.2101,-1.2072,-1.2076,-1.2064,-1.2051,-1.205,-1.2047,-1.2041,-1.2049,-1.2056,-1.2056,-1.2045,-1.2045,-1.2045,0,-1.2384,-1.2342,-1.2319,-1.2305,-1.2265,-1.2255,-1.2237,-1.2209,-1.2194,-1.2169,-1.2159,-1.2133,-1.2118,-1.2099,-1.2075,-1.2072,-1.2049,-1.2041,-1.2039,-1.2039,-1.2034,-1.2035,-1.2041,-1.2026,-1.2026,-1.2026,-1.2026,0,-1.2379,-1.2361,-1.2325,-1.231,-1.2291,-1.2264,-1.2246,-1.2227,-1.2203,-1.2185,-1.2164,-1.2148,-1.2117,-1.2098,-1.2079,-1.206,-1.2053,-1.2042,-1.2038,-1.2044,-1.2046,-1.2036,-1.2036,-1.2025,-1.2025,-1.2025,-1.2025,0,-1.239,-1.2364,-1.2338,-1.2303,-1.2293,-1.2281,-1.2251,-1.2237,-1.2218,-1.2196,-1.219,-1.2159,-1.2136,-1.211,-1.2078,-1.2066,-1.2048,-1.204,-1.2057,-1.2054,-1.2054,-1.2055,-1.2054,-1.2053,-1.2038,-1.2038,-1.2039,0,-1.2388,-1.2375,-1.2339,-1.2326,-1.2309,-1.2288,-1.2273,-1.2247,-1.2232,-1.2201,-1.2191,-1.2167,-1.2146,-1.211,-1.2086,-1.2062,-1.2054,-1.2056,-1.2051,-1.2059,-1.2056,-1.2057,-1.2057,-1.2057,-1.2058,-1.2058,-1.2058,0,-1.2389,-1.2378,-1.2357,-1.2332,-1.2314,-1.2293,-1.2271,-1.2262,-1.2232,-1.2216,-1.2193,-1.2177,-1.2145,-1.2122,-1.2096,-1.2079,-1.2064,-1.206,-1.2059,-1.2066,-1.2077,-1.2072,-1.2062,-1.206,-1.206,-1.206,-1.206,-1.206,-1.2395,-1.2382,-1.2356,-1.2333,-1.2314,-1.2295,-1.2281,-1.2261,-1.2241,-1.2213,-1.22,-1.2177,-1.2152,-1.2116,-1.21,-1.2082,-1.2077,-1.2075,-1.2074,-1.2074,-1.2077,-1.2079,-1.2077,-1.2077,-1.2077,-1.2077,-1.2077,0,-1.2395,-1.2378,-1.2358,-1.2328,-1.2311,-1.23,-1.2276,-1.2262,-1.2243,-1.2221,-1.2201,-1.2176,-1.2154,-1.2129,-1.2106,-1.2097,-1.209,-1.2092,-1.2092,-1.2089,-1.2082,-1.2086,-1.2098,-1.2098,-1.2098,-1.2098,-1.2098,-1.2098,-1.2394,-1.2373,-1.2359,-1.233,-1.2313,-1.2291,-1.2278,-1.2261,-1.2244,-1.2217,-1.2198,-1.2182,-1.216,-1.2136,-1.2116,-1.2109,-1.2102,-1.2106,-1.2098,-1.2091,-1.2089,-1.2088,-1.2092,-1.2105,-1.2105,-1.2107,-1.2107,-1.2107]},{"header":{"parameterUnit":"m.s-1","parameterCategory":1,"la1":30.2991,"la2":30.254,"lo1":-89.0895,"lo2":-89.0444,"dy":0.0017,"dx":0.0017,"nx":28,"ny":28,"refTime":"2025-09-11T03:00:00:Z","depth":0,"parameterNumber":3,"parameterNumberName":"V-component_of_WINDS"},"data":[0,0,0,0,0,0,0,0,0,0,0,0,0,0,0,0,0,0,0,0,0,0,0,0,0,0,0,0,0,0,0,0,0,0,0,0,0,0,0,0,0,0,0,0,0,0,0,0,0,0,0,0,0,0,0,0,0,0,1.5382,1.5383,0,1.5393,1.5393,1.5393,1.5343,1.5342,1.534,1.5339,1.5349,1.5351,1.5352,0,0,0,0,0,0,0,0,0,0,0,0,0,1.5318,1.5319,1.5382,1.5383,1.5383,1.5393,1.5393,1.5393,1.5344,1.5342,1.534,1.5338,1.5349,1.5351,1.5353,0,0,0,0,0,0,0,0,0,0,0,0,0,1.5339,1.5319,1.5382,1.5359,1.5357,1.5393,1.5393,1.5393,1.5344,1.5342,1.534,1.5338,1.5348,1.5351,1.5353,1.5411,0,0,1.536,1.5361,0,0,0,0,0,0,0,0,1.5338,1.5341,1.5362,1.5361,1.5359,1.5365,1.5374,1.5399,1.5345,1.5349,1.5339,1.5337,1.5356,1.5358,1.5364,1.5412,1.5412,1.5361,1.5362,1.5363,1.5364,0,0,0,0,0,0,0,1.5336,1.534,1.5386,1.5363,1.5361,1.5348,1.5348,1.5378,1.5365,1.5348,1.5345,1.5347,1.5355,1.5362,1.5364,1.5412,1.536,1.5363,1.5364,1.5365,1.5503,1.5505,0,0,0,0,0,0,1.5338,1.5339,1.5386,1.5387,1.5343,1.5351,1.5351,1.5365,1.5364,1.5362,1.5349,1.5344,1.5359,1.5362,1.5365,1.5429,1.5363,1.5365,1.5367,1.5501,1.5504,1.5506,0,0,0,0,0,0,1.5337,1.5343,1.5386,1.5362,1.5367,1.5354,1.537,1.5366,1.5374,1.5364,1.5361,1.5359,1.5358,1.5361,1.5399,1.5428,1.5366,1.5369,1.5498,1.5502,1.5505,1.556,0,0,0,0,0,0,1.5335,1.5342,1.5365,1.5363,1.5368,1.5421,1.5372,1.5368,1.5378,1.5373,1.5373,1.5371,1.5356,1.5396,1.5401,1.5431,1.537,1.5496,1.55,1.5504,1.5556,1.5565,1.5573,0,0,0,0,0,1.5333,1.5381,1.5366,1.5372,1.5396,1.5423,1.5425,1.5407,1.5381,1.5402,1.5396,1.5371,1.5425,1.54,1.5406,1.5437,1.5494,1.5499,1.5504,1.5552,1.5563,1.5573,0,0,0,0,0,0,1.5387,1.538,1.5364,1.5413,1.5419,1.5414,1.5441,1.5421,1.5434,1.5428,1.5405,1.5406,1.5447,1.5446,1.5418,1.5491,1.5455,1.5461,1.5489,1.55,1.5508,1.5506,1.5372,0,0,0,0,0,1.5405,1.5427,1.542,1.5464,1.5468,1.5454,1.5465,1.5451,1.5455,1.5457,1.5454,1.5459,1.5477,1.5489,1.5505,1.5557,1.5554,1.558,1.5589,1.5596,1.5601,1.5624,1.5634,1.5523,1.5523,1.5522,0,0,1.5442,1.5441,1.5456,1.5475,1.5477,1.55,1.5456,1.5483,1.5498,1.5461,1.5495,1.5494,1.5498,1.5541,1.5561,1.5542,1.5632,1.5603,1.5609,1.5609,1.563,1.5641,1.565,1.5526,1.5525,1.5525,0,0,1.5518,1.5522,1.5556,1.556,1.5564,1.5554,1.5563,1.5561,1.5558,1.5592,1.5563,1.5582,1.5614,1.5617,1.5623,1.57,1.5676,1.5706,1.575,1.5773,1.5781,1.5789,1.5812,1.5821,1.5711,1.5712,1.5712,0,1.5563,1.5596,1.5577,1.5604,1.5611,1.5579,1.5613,1.5617,1.5627,1.5632,1.5612,1.5649,1.565,1.5692,1.571,1.5718,1.5724,1.5704,1.5782,1.5789,1.5796,1.5818,1.5827,1.5715,1.5714,1.5714,1.5714,0,1.5648,1.5672,1.5699,1.5707,1.5719,1.5749,1.5734,1.5747,1.5732,1.5724,1.5758,1.5758,1.5772,1.5782,1.5768,1.5821,1.5808,1.5786,1.5748,1.581,1.583,1.5839,1.5719,1.5718,1.5717,1.5716,0,0,1.5758,1.5755,1.5765,1.5766,1.5768,1.5785,1.5814,1.5827,1.5837,1.5845,1.5866,1.5894,1.5871,1.5878,1.5864,1.5885,1.594,1.5859,1.5858,1.587,1.5994,1.6008,1.6018,1.5926,1.5928,1.5929,1.5992,0,1.583,1.5877,1.586,1.5908,1.5927,1.5896,1.592,1.5923,1.5917,1.5931,1.5925,1.5942,1.5914,1.5917,1.5937,1.5929,1.5964,1.5925,1.5942,1.5943,1.5938,1.6029,1.6045,1.6104,1.6,1.6002,1.6003,0,1.5919,1.5929,1.5978,1.5973,1.5981,1.6003,1.6011,1.6027,1.6029,1.6023,1.603,1.6011,1.6037,1.6002,1.6036,1.601,1.6016,1.6014,1.6016,1.6013,1.5974,1.6025,1.6124,1.6131,1.6016,1.6015,1.6014,0,1.5988,1.6014,1.6046,1.6049,1.6046,1.6061,1.6061,1.6061,1.6069,1.6077,1.6081,1.6094,1.6099,1.6108,1.6092,1.6069,1.6127,1.6092,1.612,1.612,1.613,1.6129,1.6227,1.6142,1.6142,1.6142,1.6141,0,1.6068,1.6098,1.6076,1.6095,1.6127,1.6108,1.614,1.6137,1.6137,1.6153,1.6129,1.6145,1.6125,1.6139,1.6128,1.6155,1.6159,1.6153,1.6149,1.6153,1.6153,1.6154,1.6148,1.6144,1.6143,1.6143,1.6143,0,1.6149,1.6136,1.6168,1.6162,1.6161,1.6184,1.6179,1.6195,1.6187,1.6209,1.6213,1.62,1.6215,1.6201,1.6216,1.6208,1.6243,1.6235,1.6242,1.6238,1.6265,1.6261,1.6363,1.6374,1.6286,1.6287,1.6288,0,1.6198,1.622,1.6216,1.6225,1.6225,1.6241,1.6248,1.623,1.6239,1.6242,1.6258,1.6271,1.6279,1.6305,1.6296,1.6307,1.6296,1.6331,1.6297,1.63,1.6291,1.6289,1.6289,1.6337,1.6338,1.6339,1.6339,0,1.6285,1.6277,1.6289,1.6297,1.6307,1.6313,1.6318,1.6327,1.6308,1.6318,1.6333,1.634,1.6354,1.6366,1.6374,1.6372,1.6352,1.6351,1.6357,1.6359,1.636,1.6356,1.6256,1.6347,1.6347,1.6346,1.6346,1.6345,1.6349,1.6365,1.6364,1.6377,1.6378,1.6382,1.6396,1.639,1.6401,1.641,1.64,1.6417,1.6416,1.6425,1.6425,1.6438,1.6423,1.6433,1.6435,1.6436,1.6438,1.6362,1.644,1.644,1.6439,1.6439,1.6439,0,1.6431,1.6428,1.644,1.6446,1.6456,1.6437,1.644,1.6449,1.6464,1.6466,1.6474,1.649,1.6501,1.6494,1.6503,1.6514,1.6504,1.6516,1.6513,1.6512,1.6453,1.6445,1.6523,1.6523,1.6523,1.6523,1.6523,1.6523,1.6474,1.65,1.6492,1.6517,1.6515,1.653,1.6533,1.6536,1.6537,1.6555,1.6563,1.6559,1.6556,1.6564,1.6573,1.6571,1.6573,1.6588,1.6582,1.6526,1.6517,1.6509,1.6501,1.659,1.659,1.6639,1.664,1.664]}]]